Location: ????
(30.2663°N, 31.2484°E)
Time: 07:21:03
(UTC+00:00)

Cosmos 1420 Rocket - Pass Details

Date: 27 September 2022
Orbit: 754 x 780 km, 74.0° (Epoch: 28 November)

Event Time Altitude Azimuth Distance (km) Brightness Sun altitude
Exits shadow 01:44:17 36° 166° (SSE) 1,202 4.9 -26.8°
Maximum altitude 01:46:15 60° 103° (ESE) 874 4.4 -26.4°
Drops below altitude 10° 01:51:23 10° 24° (NNE) 2,298 6.9 -25.4°
Sets 01:53:46 0° 21° (NNE) 3,222 7.7 -24.9°
